When you browse on this site, cookies collect data to enhance your experience and personalize the content and advertising you see.
Visit our Privacy Policy to learn more. By continuing to use the site, you agree to this use of cookies and data.
  • In United Kingdom
  • List of Countries
  • For 7 days
  • Water Temperature
  • Weather Map
  • Weather Widgets
  • user-avatar
    Login

    Hourly Weather Bissau

    Today, 28 May, Thursday

    Time Temperature Precipitation Wind Pressure Humidity
    00:00 +25°C° 0 mm 3 mps 759 mmHg 90%
    01:00 +25°C° 0 mm 3 mps 758 mmHg 91%
    02:00 +24°C° 0 mm 3 mps 758 mmHg 92%
    03:00 +24°C° 0 mm 3 mps 758 mmHg 92%
    04:00 +24°C° 0 mm 3 mps 758 mmHg 92%
    05:00 +25°C° 0 mm 2 mps 758 mmHg 90%
    06:00 +26°C° 0 mm 2 mps 758 mmHg 82%
    07:00 +28°C° 0 mm 3 mps 759 mmHg 75%
    08:00 +29°C° 0 mm 3 mps 759 mmHg 68%
    09:00 +33°C° 0 mm 3 mps 759 mmHg 57%
    10:00 +35°C° 0 mm 3 mps 759 mmHg 46%
    11:00 +38°C° 0 mm 3 mps 759 mmHg 35%
    12:00 +38°C° 0 mm 4 mps 758 mmHg 36%
    13:00 +39°C° 0 mm 5 mps 758 mmHg 37%
    14:00 +39°C° 0 mm 6 mps 757 mmHg 38%
    15:00 +38°C° 0 mm 6 mps 757 mmHg 40%
    16:00 +36°C° 0 mm 6 mps 756 mmHg 42%
    17:00 +34°C° 0 mm 7 mps 756 mmHg 44%
    18:00 +32°C° 0 mm 6 mps 757 mmHg 51%
    19:00 +30°C° 0 mm 6 mps 757 mmHg 59%
    20:00 +28°C° 0 mm 5 mps 758 mmHg 67%
    21:00 +27°C° 0 mm 4 mps 758 mmHg 70%
    22:00 +27°C° 0 mm 4 mps 759 mmHg 72%
    23:00 +26°C° 0 mm 3 mps 759 mmHg 75%

    Tomorrow, 29 May, Friday

    Time Temperature Precipitation Wind Pressure Humidity
    00:00 +26°C° 0 mm 3 mps 758 mmHg 76%
    01:00 +26°C° 0 mm 3 mps 758 mmHg 77%
    02:00 +25°C° 0 mm 3 mps 758 mmHg 78%
    03:00 +25°C° 0 mm 3 mps 758 mmHg 80%
    04:00 +25°C° 0 mm 2 mps 757 mmHg 82%
    05:00 +24°C° 0 mm 2 mps 757 mmHg 84%
    06:00 +26°C° 0 mm 2 mps 758 mmHg 72%
    07:00 +28°C° 0 mm 2 mps 758 mmHg 61%
    08:00 +31°C° 0 mm 2 mps 758 mmHg 50%
    09:00 +34°C° 0 mm 2 mps 758 mmHg 42%
    10:00 +37°C° 0 mm 3 mps 758 mmHg 33%
    11:00 +40°C° 0 mm 3 mps 758 mmHg 25%
    12:00 +40°C° 0 mm 4 mps 757 mmHg 27%
    13:00 +40°C° 0 mm 5 mps 757 mmHg 30%
    14:00 +39°C° 0 mm 6 mps 756 mmHg 32%
    15:00 +38°C° 0 mm 6 mps 755 mmHg 35%
    16:00 +36°C° 0 mm 7 mps 755 mmHg 37%
    17:00 +34°C° 0 mm 7 mps 755 mmHg 39%
    18:00 +32°C° 0 mm 6 mps 755 mmHg 48%
    19:00 +29°C° 0 mm 6 mps 756 mmHg 57%
    20:00 +27°C° 0 mm 5 mps 757 mmHg 66%
    21:00 +27°C° 0 mm 5 mps 757 mmHg 70%
    22:00 +26°C° 0 mm 5 mps 757 mmHg 74%
    23:00 +26°C° 0 mm 4 mps 757 mmHg 78%

    Day after tomorrow, 30 May, Saturday

    Time Temperature Precipitation Wind Pressure Humidity
    00:00 +25°C° 0 mm 4 mps 757 mmHg 81%
    01:00 +23°C° 0 mm 4 mps 757 mmHg 84%
    02:00 +24°C° 0 mm 3 mps 757 mmHg 87%
    03:00 +24°C° 0 mm 3 mps 757 mmHg 88%
    04:00 +22°C° 0 mm 3 mps 757 mmHg 89%
    05:00 +23°C° 0 mm 2 mps 757 mmHg 90%
    06:00 +26°C° 0 mm 2 mps 757 mmHg 79%
    07:00 +28°C° 0 mm 2 mps 758 mmHg 68%
    08:00 +30°C° 0 mm 2 mps 758 mmHg 56%
    09:00 +32°C° 0 mm 2 mps 758 mmHg 48%
    10:00 +36°C° 0 mm 3 mps 758 mmHg 40%
    11:00 +38°C° 0 mm 4 mps 758 mmHg 31%
    12:00 +38°C° 0 mm 4 mps 757 mmHg 31%
    13:00 +39°C° 0 mm 5 mps 756 mmHg 31%
    14:00 +39°C° 0 mm 6 mps 756 mmHg 31%
    15:00 +36°C° 0 mm 6 mps 755 mmHg 36%
    16:00 +35°C° 0 mm 6 mps 755 mmHg 40%
    17:00 +33°C° 0 mm 7 mps 755 mmHg 45%
    18:00 +30°C° 0 mm 6 mps 756 mmHg 55%
    19:00 +29°C° 0 mm 5 mps 757 mmHg 64%
    20:00 +27°C° 0 mm 4 mps 757 mmHg 74%
    21:00 +26°C° 0 mm 4 mps 758 mmHg 77%
    22:00 +26°C° 0 mm 3 mps 759 mmHg 79%
    23:00 +26°C° 0 mm 2 mps 759 mmHg 82%

    31 May, Sunday

    Time Temperature Precipitation Wind Pressure Humidity
    00:00 +26°C° 0 mm 3 mps 759 mmHg 83%
    01:00 +25°C° 0 mm 3 mps 758 mmHg 85%
    02:00 +25°C° 0 mm 3 mps 758 mmHg 86%
    03:00 +25°C° 0 mm 3 mps 758 mmHg 87%
    04:00 +24°C° 0 mm 2 mps 758 mmHg 88%
    05:00 +24°C° 0 mm 2 mps 758 mmHg 89%
    06:00 +25°C° 0 mm 2 mps 758 mmHg 82%
    07:00 +27°C° 0 mm 2 mps 759 mmHg 75%
    08:00 +28°C° 0 mm 2 mps 759 mmHg 67%
    09:00 +31°C° 0 mm 3 mps 759 mmHg 57%
    10:00 +35°C° 0 mm 3 mps 759 mmHg 47%
    11:00 +37°C° 0 mm 4 mps 759 mmHg 37%
    12:00 +37°C° 0 mm 4 mps 758 mmHg 38%
    13:00 +37°C° 0 mm 5 mps 758 mmHg 39%
    14:00 +38°C° 0 mm 6 mps 757 mmHg 40%
    15:00 +36°C° 0 mm 6 mps 757 mmHg 41%
    16:00 +35°C° 0 mm 6 mps 757 mmHg 43%
    17:00 +34°C° 0 mm 6 mps 757 mmHg 44%
    18:00 +33°C° 0 mm 6 mps 757 mmHg 47%
    19:00 +30°C° 0 mm 5 mps 758 mmHg 51%
    20:00 +29°C° 0 mm 5 mps 759 mmHg 55%
    21:00 +29°C° 0 mm 4 mps 759 mmHg 58%
    22:00 +28°C° 0 mm 4 mps 760 mmHg 60%
    23:00 +28°C° 0 mm 3 mps 760 mmHg 62%

    1 June, Monday

    Time Temperature Precipitation Wind Pressure Humidity
    00:00 +27°C° 0.1 mm 2 mps 760 mmHg 65%
    01:00 +27°C° 0.1 mm 1 mps 760 mmHg 68%
    02:00 +27°C° 0.1 mm 1 mps 759 mmHg 71%
    03:00 +27°C° 0 mm 2 mps 759 mmHg 67%
    04:00 +27°C° 0 mm 3 mps 759 mmHg 62%
    05:00 +28°C° 0 mm 4 mps 758 mmHg 58%
    06:00 +29°C° 0 mm 3 mps 759 mmHg 51%
    07:00 +30°C° 0 mm 2 mps 759 mmHg 44%
    08:00 +30°C° 0 mm 0 mps 759 mmHg 37%
    09:00 +34°C° 0 mm 1 mps 759 mmHg 35%
    10:00 +37°C° 0 mm 2 mps 759 mmHg 32%
    11:00 +39°C° 0 mm 2 mps 759 mmHg 30%
    12:00 +40°C° 0 mm 3 mps 759 mmHg 28%
    13:00 +42°C° 0 mm 4 mps 758 mmHg 26%
    14:00 +43°C° 0 mm 4 mps 757 mmHg 25%
    15:00 +41°C° 0 mm 6 mps 757 mmHg 31%
    16:00 +38°C° 0 mm 7 mps 757 mmHg 38%
    17:00 +35°C° 0 mm 8 mps 757 mmHg 45%
    18:00 +33°C° 0 mm 7 mps 758 mmHg 50%
    19:00 +30°C° 0 mm 6 mps 759 mmHg 55%
    20:00 +28°C° 0 mm 5 mps 759 mmHg 60%
    21:00 +27°C° 0 mm 5 mps 759 mmHg 62%
    22:00 +27°C° 0 mm 4 mps 759 mmHg 63%
    23:00 +26°C° 0 mm 4 mps 760 mmHg 65%

    2 June, Tuesday

    Time Temperature Precipitation Wind Pressure Humidity
    00:00 +26°C° 0 mm 4 mps 759 mmHg 67%
    01:00 +25°C° 0 mm 3 mps 759 mmHg 69%
    02:00 +25°C° 0 mm 3 mps 759 mmHg 70%
    03:00 +25°C° 0 mm 3 mps 759 mmHg 72%
    04:00 +24°C° 0 mm 3 mps 759 mmHg 73%
    05:00 +24°C° 0 mm 3 mps 759 mmHg 74%
    06:00 +26°C° 0 mm 3 mps 759 mmHg 64%
    07:00 +28°C° 0 mm 3 mps 759 mmHg 54%
    08:00 +30°C° 0 mm 3 mps 760 mmHg 45%
    09:00 +34°C° 0 mm 2 mps 760 mmHg 36%
    10:00 +37°C° 0 mm 2 mps 760 mmHg 28%
    11:00 +40°C° 0 mm 2 mps 760 mmHg 20%
    12:00 +42°C° 0 mm 3 mps 759 mmHg 20%
    13:00 +42°C° 0 mm 4 mps 758 mmHg 20%
    14:00 +42°C° 0 mm 5 mps 757 mmHg 20%
    15:00 +40°C° 0 mm 5 mps 757 mmHg 26%
    16:00 +38°C° 0 mm 6 mps 756 mmHg 33%
    17:00 +35°C° 0 mm 6 mps 756 mmHg 39%
    18:00 +33°C° 0 mm 6 mps 757 mmHg 44%
    19:00 +32°C° 0 mm 5 mps 757 mmHg 49%
    20:00 +29°C° 0 mm 5 mps 758 mmHg 54%
    21:00 +28°C° 0 mm 5 mps 758 mmHg 57%
    22:00 +28°C° 0 mm 5 mps 758 mmHg 60%
    23:00 +27°C° 0 mm 4 mps 759 mmHg 64%
    Show more